Location: Star Hoppers Observatory
(42.7905°N, 83.6127°W)
Time: 19:13:58
(UTC-05:00)

Daily predictions for brighter satellites

Satellite Brightness Start Highest point End
(mag) Time Altitude Azimuth Time Altitude Azimuth Time Altitude Azimuth
Aureole 3 4.1 17:29:56 10° N 17:34:38 84° E 17:40:39 10° S
Cosmos 1633 4.2 17:34:57 10° NNE 17:37:16 16° ENE 17:39:34 10° ESE
CSL-04 Debris 4.2 17:32:18 10° SSE 17:37:36 58° ENE 17:42:54 10° N
IDEFIX/ARIANE 42P 3.7 17:33:02 10° S 17:38:05 50° W 17:43:09 10° NNW
Cosmos 1437 2.8 17:36:31 10° S 17:39:36 57° E 17:42:44 10° NNE
BREEZE-M DEB (TANK) 2.8 17:41:29 10° WSW 17:43:42 51° NNW 17:46:32 10° ENE
Cosmos 1833 Rocket 3.5 17:39:47 10° N 17:44:35 28° NE 17:49:21 10° ESE
Cosmos 1908 Rocket 4.1 17:42:46 10° N 17:46:48 36° ENE 17:50:48 10° SE
Cosmos 1733 Rocket 3.1 17:43:43 10° N 17:48:10 90° WSW 17:52:37 10° S
BREEZE-M DEB (TANK) 3.2 17:46:59 10° NW 17:48:38 21° NNE 17:50:24 12° ENE
Cosmos 1844 4.0 17:43:21 10° SSW 17:49:07 73° WNW 17:54:57 10° NNE
Cosmos 2233 Rocket 4.0 17:46:37 10° S 17:52:47 64° E 17:58:54 10° NNE
CENTAUR R/B 3.1 17:46:46 10° SW 17:52:47 60° NW 17:59:42 10° NNE
Cosmos 2278 Rocket 2.3 17:48:13 10° S 17:53:47 62° ESE 17:59:23 10° NNE
SPOT 3 Rocket 4.4 17:50:50 10° ESE 17:55:08 27° ENE 17:59:26 10° N
ALOS 3.5 17:52:11 10° ESE 17:55:38 21° ENE 17:59:05 10° NNE
Meteor 1-26 Rocket 4.2 17:50:55 10° S 17:56:28 74° E 18:02:00 10° NNE
BREEZE-M DEB (TANK) 3.2 17:55:34 10° SSW 17:57:21 23° SE 17:58:53 14° E
Cosmos 2242 Rocket 4.1 17:54:02 10° SSW 17:58:33 64° W 18:03:04 10° N
ERBS 3.3 17:56:04 10° NW 17:59:23 50° SW 18:02:41 10° SSE
CORIOLIS 4.1 17:54:15 10° SSE 17:59:39 70° ENE 18:05:05 10° N
Cosmos 1862 Rocket 3.7 17:56:01 10° S 18:00:26 80° W 18:04:56 10° N
COSMOS 2455 3.1 17:56:46 10° SW 18:02:44 74° WNW 18:08:48 10° NNE
AQUARIUS 4.1 17:58:18 10° SSE 18:02:47 84° ENE 18:07:18 10° NNW
Sich 1 Rocket 3.8 17:59:24 10° N 18:03:40 46° ENE 18:07:57 10° SSE
SMAP 3.0 17:59:03 10° SSE 18:03:42 87° E 18:08:22 10° NNW
Timation 1 Rocket 4.4 18:00:28 10° SSW 18:06:28 85° WNW 18:12:31 10° NNE
Meteor 1-28 Rocket 3.1 18:04:44 10° NNE 18:08:26 67° E 18:12:07 10° S
CZ-4 R/B 1.1 18:04:58 10° SSE 18:08:50 75° ENE 18:12:40 10° N
MOS 1 4.5 18:08:32 10° SE 18:13:59 49° ENE 18:19:27 10° N
Cosmos 1606 3.0 18:11:09 10° SSE 18:14:44 43° E 18:18:20 10° NNE
Okean 1-7 3.5 18:11:20 10° SSE 18:15:22 37° E 18:19:26 10° NNE
Cosmos 1484 Rocket 3.4 18:13:07 10° S 18:16:55 60° W 18:20:49 10° NNW
BREEZE-M R/B 2.2 18:14:22 10° WNW 18:17:00 84° NNE 18:20:54 12° ESE
CZ-4C R/B 3.5 18:12:39 10° NNW 18:18:53 34° NE 18:24:02 17° E
Landsat 4 3.6 18:16:14 10° NNE 18:20:01 65° ESE 18:23:47 10° S
EO 1 Del DPAF 3.6 18:19:24 13° NNE 18:22:33 41° E 18:26:10 10° S
Cosmos 1763 Rocket 4.3 18:24:15 10° NNW 18:29:20 55° WSW 18:34:19 10° S
Cosmos 1782 Rocket 3.4 18:27:06 10° N 18:31:25 64° E 18:35:44 10° SSE
CZ-3A R/B 4.0 18:14:03 10° NW 18:31:41 84° NE 18:37:38 10° SE
Meteor 2-6 Rocket 4.3 18:26:42 10° SSE 18:31:56 51° E 18:37:19 10° NNE
Cosmos 2082 Rocket 2.2 18:27:19 10° NNW 18:32:59 61° ENE 18:38:34 10° SE
METEOR-M 4.0 18:31:07 10° SSE 18:36:27 83° ENE 18:41:49 10° NNW
Meteor 1-20 Rocket 4.3 18:31:03 10° NNW 18:36:37 77° W 18:42:04 10° S
USA 116 4.2 18:32:16 10° N 18:36:46 67° WNW 18:40:41 10° SSW
COSMO-SKYMED 1 2.5 18:32:43 10° NNE 18:37:03 67° E 18:41:22 10° S
YAOGAN 1 2.7 18:33:40 10° S 18:37:59 74° WSW 18:42:20 10° NNW
Cosmos 1602 4.1 18:35:26 10° N 18:39:04 39° ENE 18:42:41 10° SSE
Cosmos 1782 2.7 18:35:48 10° S 18:39:49 88° ESE 18:43:52 10° N
ERS-2 2.4 18:42:28 10° S 18:46:08 69° WSW 18:49:49 10° NNW
SL-27 R/B 3.2 18:43:06 10° NNW 18:46:21 50° WSW 18:49:36 10° S
Cosmos 405 Rocket 2.8 18:44:00 10° S 18:47:40 49° E 18:47:47 49° E
Cosmos 1072 Rocket 4.4 18:42:53 10° S 18:49:06 82° E 18:55:28 10° N
Nadezhda 4 Rocket 4.2 18:44:59 10° N 18:50:50 44° ENE 18:56:38 10° SSE
Cosmos 44 Rocket 3.3 18:48:34 10° NNW 18:53:23 57° NE 18:55:05 37° ESE
Cosmos 1503 Rocket 3.9 18:49:07 10° SSW 18:54:24 89° ESE 18:58:19 18° NNE
Cosmos 2221 Rocket 3.5 18:50:42 10° S 18:55:07 87° WNW 18:59:20 11° N
Cosmos 2034 Rocket 4.0 18:49:35 10° S 18:55:51 63° E 19:02:07 10° NNE
Cosmos 540 Rocket 3.5 18:50:41 10° NNW 18:55:53 83° WSW 19:01:02 10° SSE
Timation 2 Rocket 4.4 18:51:10 10° NNW 18:57:41 45° NE 19:00:00 34° ESE
Lacrosse 5 3.8 18:55:08 10° NW 18:58:19 16° N 18:59:43 15° NNE
Cosmos 968 Rocket 3.9 18:53:53 10° S 18:58:25 39° ESE 18:58:25 39° ESE
USA 234 3.2 18:55:35 30° ENE 18:58:59 68° SE 19:05:29 10° SW
Meteor 1-27 Rocket 3.8 18:55:50 10° S 19:01:37 60° E 19:06:37 14° NNE
Cosmos 292 Rocket 3.6 18:58:44 10° NNW 19:03:30 74° ENE 19:06:28 23° SSE
DMSP B5D1-3 4.4 19:03:07 17° NNE 19:07:11 80° ESE 19:12:20 10° S
Cosmos 1092 Rocket 4.3 19:02:02 10° N 19:07:23 41° ENE 19:07:23 41° ENE
Meteor 2-20 4.3 19:02:46 10° N 19:08:53 76° E 19:14:57 10° SSE
Meteor 1-10 Rocket 4.5 19:04:56 10° SSW 19:10:35 71° WNW 19:16:23 10° N
Cosmos 1633 4.4 19:09:00 10° NNW 19:12:18 32° W 19:15:35 10° SSW
Okean 2 Rocket 3.3 19:08:58 10° NNW 19:13:29 70° W 19:17:58 10° S
FENGYUN 3A 3.8 19:11:14 10° S 19:16:38 73° WSW 19:22:03 10° NNW
Cosmos 44 3.3 19:16:57 10° NW 19:21:39 76° WSW 19:22:54 49° SSE
Cosmos 1464 Rocket 4.5 19:18:04 10° SSW 19:24:05 59° W 19:30:11 10° N
Cosmos 1833 Rocket 3.6 19:23:21 10° NW 19:28:43 47° WSW 19:34:04 10° S
ALOS 3.4 19:28:19 10° S 19:32:46 44° W 19:37:14 10° NNW
Cosmos 2297 4.4 19:27:38 10° SW 19:33:11 52° WNW 19:36:14 26° N
Cosmos 2278 Rocket 4.3 19:33:53 10° WSW 19:38:19 23° NW 19:42:46 10° N
Meteor 1-11 Rocket 4.1 19:34:20 10° NNW 19:40:09 65° W 19:45:48 10° S
USA 229 DEB 4.1 19:42:45 10° SSW 19:47:40 46° SSE 19:47:40 46° SSE
USA 229 4.1 19:42:52 10° SSW 19:47:43 45° SSE 19:47:43 45° SSE
CZ-4C R/B 3.0 20:00:50 10° NW 20:08:02 72° WSW 20:09:18 61° S
USA 234 4.2 20:42:57 41° NW 20:42:57 41° NW 20:47:55 10° W
